Location: Ladrillo (historical)
(32.8195°N, 117.2231°W)
Time: 06:17:57
(UTC+00:00)

Tiangong - Pass Details

Date: 26 September 2021
Orbit: 382 x 385 km, 41.5° (Epoch: 16 October)

Event Time Altitude Azimuth Distance (km) Brightness Sun altitude
Exits shadow 13:10:19 - 274° (W) 1,453 3.3 -7.1°
Reaches altitude 10° 13:10:29 10° 275° (W) 1,393 3.2 -7.0°
Maximum altitude 13:13:20 31° 341° (NNW) 691 2.2 -6.4°
Drops below altitude 10° 13:16:12 10° 46° (NE) 1,395 4.7 -5.8°
Sets 13:18:24 0° 57° (ENE) 2,248 6.1 -5.4°
